SL-14 DEB, 45299

Orbit data source: Space-Track

SL-14 DEB, 45299 is space debris in LEO originally from a launch on Thu, 15 Aug 1991 UTC launched from the Plesetsk Missile And Space Complex (PKMTR). Debris objects in space refer to the collection of defunct objects orbiting the Earth. Examples of debris include non-operational satellites, rocket bodies, and fragments generated from explosions, collisions, or faulty payload assembly.

Loading next visibility...
Identifier
45299, 1991-056AM
Orbit
LEO
Country
Flag of CISCIS
Related business
Manufacturer
Unknown
Mission
Spacecraft
Bus & Motor
Unknown
Mass
Unknown
Launch date (UTC)
1991-08-15 (35 years ago)
Launch vehicle
Unknown
Launch site
Plesetsk Missile And Space Complex (PKMTR)
Object type
Payload
Rocket body
Debris
Shape & HBR
Unknown shape, 0.4 m
Radar Cross Section
Medium (>0.1 m² and <1 m²)

Expand to show TLE details & history
Last TLE update: 23 hours ago

TLE from 23 hours ago
0 SL-14 DEB
1 45299U 91056AM  26130.65847419 -.00001146  00000-0 -30611-2 0  9993
2 45299  82.6309 202.9521 0118462 120.1044 241.1883 13.13544464297868
Epoch: 2026-05-10T15:48Z
TLE epoch observation values (Epoch: 2026-05-10T15:48:12.170Z)
Latitude
-0.00001°
Longitude
97.443°
Altitude
1,256.421 km
Speed
7.206 km/s
True Right ascension
13h 31m 48s
True Declination
0° 00' 00"
Sunlit
Object was in full shadow at epoch
Visualization orbit readout
Latitude
Unknown
Longitude
Unknown
Altitude
Unknown
Speed
Unknown
Apparent Right ascension
Unknown
Apparent Declination
Unknown
Sunlit
N/A
Visualization observer readout
Local Sidereal Time
23:03:19
Azimuth
Unknown
Elevation
Unknown
Doppler factor
Unknown
Orbital elements
Apogee altitude
1,296.576 km
Perigee altitude
1,116.873 km
Semi-major axis
7,584.861 km
Eccentricity
0.01185
Inclination
82.6309°
RAAN
202.9521°
Arg. of periapsis
120.1044°
True anomaly
240.00738°
Mean anomaly
241.1883°
Eccentric anomaly
240.59699°
Mean motion
3.28565 °/min
Orbital period
109.57 mins
BSTAR
-0.0030611
Loading maneuver chart data...
Computing Atmospheric mass density...
Loading historical data...
Loading historical data...
Loading historical data...
Loading historical data...
Loading historical data...
Loading historical data...
Loading historical data...

Documentation

Showing up to 5 results
|